Wichita Mid Continent Airport
KICT : rendu visible

Aérodrome :











RETROUVEZ-NOUS SUR...

 
LOGIN :

S'inscrire | Disclaimer

   EN    FR    IT 

 









Légende :    VFR   VFR Marginal   IFR   IFR Intensif   IFR Très Intensif
Visi : 
Plafond : 
>= 8 km
>= 3000ft
5 à 8 km
1000 à 3000 ft
1500m à 5 km
500 à 1000 ft
800 à 1500m
200 à 500 ft
< 800m
< 200 ft
Symboles :   Orages  Brouillard  Fortes neiges  Fortes précipitations  Vent > 20 kt






- Altitude de l'aérodrome : 1333 ft
- Code IATA : ICT


KICT - Wichita Mid Continent

DERNIER METAR :
  • 192153Z 01016G24KT 10SM FEW025 FEW150 14/04 A2996 RMK AO2 SLP148 T01440039

METARs EXPIRÉS :
  • 192053Z 01017G23KT 10SM FEW020 FEW045 FEW180 16/05 A2997 RMK AO2 SLP150 T01560050 58008
  • 191953Z 03015G20KT 10SM FEW025 FEW050 16/04 A2998 RMK AO2 SLP153 T01560044

TAF KICT
Valide du 19 à 18h jusqu'au 20 à 18h UTC


191739Z 1918/2018 01014G20KT P6SM SKC
FM200000 03017G26KT P6SM SCT060
FM200600 02019G27KT P6SM -RASN BKN035
FM200800 01018G27KT 6SM -SN BR OVC021
FM201000 01018KT 4SM -SN BR OVC013
FM201600 36016G24KT P6SM BKN017
FIR KZKC / Amérique du Nord



MET'MAP, la Météo Aéronautique d'un coup d'oeil ! - Copyright ORBIFLY Décembre 2007 - Disclaimer

ORBIFLY MET'MAP TEAM :

Programmation & Développement : Alexandra Zaïnal
Sur une idée originale de : Baudouin d'Aumeries
Assistance à la programmation : Marc-Olivier Méhu
Soutien technique & logistique : Manuel Goepfert

Contact : metmap@orbifly.com




SOURCES & CREDITS :

   NOAA       Earth
Advisory